Regional Weather Roundup
Issued by NWS

Home | Current Version | Previous Version | Graphics & Text | Print | Product List | Glossary On
Versions: 1 2 3 4 5 6 7 8 9 10 11 12 13 14 15 16 17 18 19 20 21 22 23 24 25 26 27 28 29 30 31 32 33 34 35 36 37 38 39 40 41 42 43 44 45 46 47 48 49 50
236
ASUS44 KJAN 220810
RWRMS

MISSISSIPPI HOURLY WEATHER ROUNDUP
NATIONAL WEATHER SERVICE JACKSON MS
200 AM CST SAT NOV 22 2014

NOTE: "FAIR: INDICATES FEW OR NO CLOUDS BELOW 12,000 FEET WITH NO
SIGNIFICANT WEATHER AND/OR OBSTRUCTIONS TO VISIBILITY.

MSZ001>002-007>008-010>013-018>021-025>028-034>036-220900-
NORTHWEST MISSISSIPPI

CITY           SKY/WX    TMP DP  RH WIND       PRES   REMARKS
CLARKSDALE     CLOUDY    54  48  82 SE7       30.29S
CLEVELAND      PTSUNNY   55  49  79 S5        30.28S
GREENWOOD      PTCLDY    54  45  71 S8        30.29S
GREENVILLE     CLOUDY    55  48  77 SE6       30.27S
GRENADA        CLOUDY    50  46  87 CALM      30.31S
OLIVE BRANCH   CLEAR     52  52 100 SE8       30.29S
OXFORD         FAIR      52  45  76 SE6       30.32R
TUNICA         MOSUNNY   52  46  82 S7        30.28F
$$

MSZ003>006-009-014>017-022>024-029>033-037>039-220900-
NORTHEAST MISSISSIPPI

CITY           SKY/WX    TMP DP  RH WIND       PRES   REMARKS
COLUMBUS AFB   CLEAR     44  41  89 CALM      30.33S
CORINTH        CLOUDY    52  41  66 SE3       30.32R
GOLDN TRIANGLE CLEAR     48  43  81 SE8       30.32S
STARKVILLE     FAIR      50  45  81 SE3       30.32R
TUPELO         CLOUDY    52  42  69 S3        30.33R
$$

MSZ040-058-220900-
CENTRAL MISSISSIPPI

CITY           SKY/WX    TMP DP  RH WIND       PRES   REMARKS
JACKSON INTL   PTCLDY    47  43  86 CALM      30.28S
JACKSON HAWKNS CLOUDY    49  44  83 SE3       30.28S
MERIDIAN KEY   CLEAR     52  42  69 SE7       30.30F
MERIDIAN NAS   CLEAR     43  41  93 E7        30.31F
RAYMOND        FAIR      50  45  81 MISG      30.27F
VICKSBURG      CLOUDY    55  47  74 CALM      30.27S
$$

MSZ059>079-220900-
SOUTH MISSISSIPPI

CITY           SKY/WX    TMP DP  RH WIND       PRES   REMARKS
BROOKHAVEN     FAIR      50  46  87 CALM      30.28S
HATTIESBURG    CLEAR     42  39  89 CALM      30.30F
MCCOMB         CLEAR     52  45  77 E5        30.26S
NATCHEZ        MOCLDY    55  46  71 CALM      30.26F
PINE BELT      CLEAR     45  39  81 CALM      30.29F
$$

MSZ080>082-220900-
COASTAL MISSISSIPPI

CITY           SKY/WX    TMP DP  RH WIND       PRES   REMARKS
BILOXI         CLEAR     53  46  75 NE7       30.25F
PASCAGOULA     CLEAR     46  43  89 N3        30.27R
GULFPORT       CLEAR     52  46  80 NE6       30.25F
$$



USA.gov is the U.S. government's official web portal to all federal, state and local government web resources and services.